Weather History for KOCW - February, 2014

Change the Weather History Date:

Monday, February 10, 2014

  Actual Average (KEWN) Record (KEWN)
Temperature  
Mean Temperature 39 °F 46 °F  
Max Temperature 45 °F 57 °F 80 °F (1959)
Min Temperature 32 °F 36 °F 12 °F (1979)
Degree Days  
Heating Degree Days 26 19  
Month to date heating degree days 194  
Since 1 July heating degree days 1834  
Cooling Degree Days 0 0  
Month to date cooling degree days 0  
Year to date cooling degree days 1  
Moisture  
Dew Point 34 °F    
Average Humidity 79    
Maximum Humidity 86    
Minimum Humidity 63    
Precipitation  
Precipitation 0.00 in 0.12 in 1.83 in (1973)
Month to date precipitation 1.24  
Year to date precipitation 5.26  
Snow  
Snow 0.00 in - - ()
Month to date snowfall  
Since 1 July snowfall  
Snow Depth -    
Sea Level Pressure  
Sea Level Pressure 30.15 in    
Wind  
Wind Speed 4 mph (NNE)    
Max Wind Speed 12 mph    
Max Gust Speed -    
Visibility 9 miles    
Events      
T = Trace of Precipitation, MM = Missing Value Source: NWS Daily Summary

Daily Weather History Graph

Daily Weather History Graph

Search for Another Location

Airport or City:

Trip Planner

Search our weather history database for the weather conditions in past years. The results will help you decide how hot, cold, wet, or windy it might be!

Date:

Astronomy

Feb. 10, 2014 Rise Set
Actual Time 7:00 AM EST 5:45 PM EST
Civil Twilight 6:33 AM EST 6:11 PM EST
Nautical Twilight 6:03 AM EST 6:41 PM EST
Astronomical Twilight 5:34 AM EST 7:11 PM EST
Moon 2:15 PM EST (2/10) 3:48 AM EST (2/10)
Length of Visible Light 11h 37m
Length of Day
10h 45m
Waxing Gibbous, 84% of the Moon is Illuminated
Feb 10
Waxing Gibbous
Feb 14
Full
Feb 22
Last Quarter
Mar 1
New
Mar 8
First Quarter

Hourly Weather History & Observations

Time (EST) Temp. Windchill Dew Point Humidity Pressure Visibility Wind Dir Wind Speed Gust Speed Precip Events Conditions
12:15 AM 44.8 °F - 40.5 °F 85% 30.05 in 10.0 mi Calm Calm - N/A   Overcast
12:35 AM 45.1 °F - 41.0 °F 85% 30.04 in 10.0 mi Calm Calm - N/A   Overcast
12:55 AM 45.1 °F 40.3 °F 41.0 °F 85% 30.04 in 10.0 mi NW 9.2 mph - N/A   Mostly Cloudy
1:15 AM 44.2 °F - 40.1 °F 85% 30.03 in 10.0 mi Calm Calm - N/A   Clear
1:35 AM 42.8 °F - 38.5 °F 85% 30.03 in 10.0 mi Calm Calm - N/A   Clear
1:55 AM 40.1 °F - 36.1 °F 86% 30.02 in 7.0 mi Calm Calm - N/A   Clear
2:15 AM 40.1 °F 38.0 °F 36.1 °F 86% 30.01 in 5.0 mi North 3.5 mph - N/A   Clear
2:35 AM 39.6 °F - 35.4 °F 85% 30.02 in 4.0 mi Calm Calm - N/A   Clear
2:55 AM 37.6 °F - 33.8 °F 86% 30.04 in 5.0 mi Calm Calm - N/A   Clear
3:15 AM 37.6 °F - 33.8 °F 86% 30.05 in 1.5 mi Calm Calm - N/A   Unknown
3:35 AM 37.6 °F - 33.8 °F 86% 30.05 in 5.0 mi Calm Calm - N/A   Clear
3:55 AM 37.6 °F 34.0 °F 33.8 °F 86% 30.05 in 5.0 mi NNW 4.6 mph - N/A   Clear
4:15 AM 37.8 °F 35.3 °F 34.0 °F 86% 30.05 in 7.0 mi North 3.5 mph - N/A   Clear
4:35 AM 38.8 °F 36.5 °F 34.9 °F 86% 30.06 in 7.0 mi NW 3.5 mph - N/A   Clear
4:55 AM 40.1 °F 38.0 °F 36.1 °F 86% 30.07 in 10.0 mi WNW 3.5 mph - N/A   Clear
5:15 AM 40.1 °F 38.0 °F 36.1 °F 86% 30.07 in 10.0 mi NNW 3.5 mph - N/A   Clear
5:35 AM 40.1 °F 36.9 °F 36.0 °F 85% 30.06 in 10.0 mi North 4.6 mph - N/A   Clear
5:55 AM 40.1 °F 36.9 °F 36.1 °F 86% 30.08 in 10.0 mi NNW 4.6 mph - N/A   Clear
6:15 AM 40.1 °F 36.9 °F 36.0 °F 85% 30.08 in 10.0 mi North 4.6 mph - N/A   Clear
6:35 AM 40.1 °F - 35.8 °F 85% 30.08 in 10.0 mi Calm Calm - N/A   Clear
6:55 AM 40.1 °F - 36.1 °F 86% 30.08 in 10.0 mi Calm Calm - N/A   Clear
7:15 AM 40.1 °F - 36.0 °F 85% 30.09 in 10.0 mi Calm Calm - N/A   Clear
7:35 AM 39.4 °F - 35.4 °F 86% 30.11 in 10.0 mi Calm Calm - N/A   Clear
7:55 AM 37.6 °F 33.1 °F 33.8 °F 86% 30.11 in 10.0 mi North 5.8 mph - N/A   Clear
8:15 AM 40.1 °F 36.9 °F 36.1 °F 86% 30.12 in 10.0 mi NNE 4.6 mph - N/A   Clear
8:35 AM 40.5 °F 34.6 °F 35.6 °F 83% 30.14 in 10.0 mi NNE 9.2 mph - N/A   Clear
8:55 AM 40.1 °F 34.1 °F 35.2 °F 83% 30.14 in 10.0 mi NE 9.2 mph - N/A   Clear
9:15 AM 40.1 °F 34.1 °F 35.2 °F 83% 30.17 in 10.0 mi ENE 9.2 mph - N/A   Clear
9:35 AM 40.1 °F 35.3 °F 35.2 °F 83% 30.18 in 10.0 mi NE 6.9 mph - N/A   Clear
9:55 AM 40.1 °F 34.7 °F 35.2 °F 83% 30.19 in 10.0 mi NE 8.1 mph - N/A   Clear
10:15 AM 40.5 °F 35.8 °F 35.6 °F 83% 30.20 in 10.0 mi NE 6.9 mph - N/A   Clear
10:35 AM 42.1 °F 37.7 °F 36.5 °F 81% 30.20 in 10.0 mi NE 6.9 mph - N/A   Clear
10:55 AM 42.8 °F 38.6 °F 36.3 °F 78% 30.20 in 10.0 mi ENE 6.9 mph - N/A   Clear
11:15 AM 42.8 °F 38.6 °F 35.6 °F 76% 30.19 in 10.0 mi East 6.9 mph - N/A   Scattered Clouds
11:35 AM 42.8 °F 38.0 °F 34.3 °F 72% 30.19 in 10.0 mi ENE 8.1 mph - N/A   Mostly Cloudy
11:55 AM 42.8 °F 37.5 °F 34.5 °F 73% 30.20 in 10.0 mi NE 9.2 mph - N/A   Mostly Cloudy
12:15 PM 43.0 °F 38.2 °F 34.0 °F 71% 30.19 in 10.0 mi NNE 8.1 mph - N/A   Mostly Cloudy
12:35 PM 43.2 °F 38.4 °F 33.3 °F 68% 30.18 in 10.0 mi ENE 8.1 mph - N/A   Mostly Cloudy
12:55 PM 43.2 °F 38.4 °F 32.7 °F 67% 30.17 in 10.0 mi NE 8.1 mph - N/A   Mostly Cloudy
1:15 PM 42.8 °F 36.6 °F 32.4 °F 67% 30.15 in 10.0 mi NNE 11.5 mph - N/A   Mostly Cloudy
1:35 PM 43.7 °F 38.6 °F 32.2 °F 64% 30.15 in 10.0 mi NNE 9.2 mph - N/A   Scattered Clouds
1:55 PM 43.9 °F 39.3 °F 32.0 °F 63% 30.15 in 10.0 mi NNE 8.1 mph - N/A   Scattered Clouds
2:15 PM 42.8 °F 37.5 °F 31.3 °F 64% 30.16 in 10.0 mi NNE 9.2 mph - N/A   Scattered Clouds
2:35 PM 42.8 °F 37.0 °F 32.0 °F 66% 30.16 in 10.0 mi North 10.4 mph - N/A   Overcast
2:55 PM 42.8 °F 36.6 °F 31.8 °F 65% 30.15 in 10.0 mi NNE 11.5 mph - N/A   Mostly Cloudy
3:15 PM 42.8 °F 37.0 °F 32.0 °F 66% 30.16 in 10.0 mi NNE 10.4 mph - N/A   Overcast
3:35 PM 42.3 °F 38.6 °F 31.6 °F 66% 30.16 in 10.0 mi NE 5.8 mph - N/A   Mostly Cloudy
3:55 PM 40.5 °F 35.1 °F 30.4 °F 67% 30.16 in 10.0 mi NE 8.1 mph - N/A   Scattered Clouds
4:15 PM 40.3 °F 35.5 °F 30.4 °F 68% 30.17 in 10.0 mi NE 6.9 mph - N/A   Scattered Clouds
4:35 PM 40.1 °F 34.1 °F 30.7 °F 69% 30.18 in 10.0 mi NNE 9.2 mph - N/A   Scattered Clouds
4:55 PM 40.1 °F 34.7 °F 30.6 °F 69% 30.19 in 10.0 mi NNE 8.1 mph - N/A   Mostly Cloudy
5:15 PM 39.6 °F 34.7 °F 30.0 °F 69% 30.19 in 10.0 mi NE 6.9 mph - N/A   Overcast
5:35 PM 38.8 °F 34.6 °F 29.5 °F 69% 30.21 in 10.0 mi NE 5.8 mph - N/A   Overcast
5:55 PM 37.6 °F 31.6 °F 29.1 °F 72% 30.22 in 10.0 mi NE 8.1 mph - N/A   Overcast
6:15 PM 37.6 °F 33.1 °F 29.3 °F 72% 30.21 in 10.0 mi NE 5.8 mph - N/A   Overcast
6:35 PM 37.6 °F 35.1 °F 29.7 °F 73% 30.22 in 10.0 mi NE 3.5 mph - N/A   Overcast
6:55 PM 37.6 °F 32.3 °F 30.2 °F 75% 30.23 in 10.0 mi NE 6.9 mph - N/A   Overcast
7:15 PM 37.6 °F 35.1 °F 30.7 °F 76% 30.24 in 10.0 mi NE 3.5 mph - N/A   Overcast
7:35 PM 37.6 °F 32.3 °F 30.9 °F 77% 30.24 in 10.0 mi NE 6.9 mph - N/A   Mostly Cloudy
7:55 PM 37.6 °F 32.3 °F 31.1 °F 77% 30.24 in 10.0 mi ENE 6.9 mph - N/A   Overcast
8:15 PM 37.6 °F 33.1 °F 31.8 °F 80% 30.24 in 10.0 mi NE 5.8 mph - N/A   Overcast
8:35 PM 37.6 °F 33.1 °F 32.0 °F 80% 30.25 in 10.0 mi NE 5.8 mph - N/A   Overcast
9:00 PM 37.6 °F 33.1 °F 32.4 °F 81% 30.24 in 10.0 mi NE 5.8 mph - N/A   Overcast
9:15 PM 37.4 °F 32.8 °F 32.4 °F 82% 30.25 in 10.0 mi NE 5.8 mph - N/A   Overcast
9:35 PM 35.1 °F 28.6 °F 30.9 °F 85% 30.26 in 10.0 mi ENE 8.1 mph - N/A   Overcast
9:55 PM 35.1 °F 29.3 °F 30.9 °F 85% 30.27 in 10.0 mi NE 6.9 mph - N/A   Mostly Cloudy
10:15 PM 35.1 °F 30.1 °F 31.1 °F 85% 30.27 in 10.0 mi ENE 5.8 mph - N/A   Mostly Cloudy
10:35 PM 35.1 °F 29.3 °F 31.1 °F 85% 30.26 in 10.0 mi NE 6.9 mph - N/A   Scattered Clouds
10:55 PM 34.9 °F 29.9 °F 31.1 °F 86% 30.26 in 10.0 mi ENE 5.8 mph - N/A   Mostly Cloudy
11:15 PM 33.8 °F 28.6 °F 29.3 °F 84% 30.26 in 10.0 mi ENE 5.8 mph - N/A   Overcast
11:35 PM 33.1 °F 27.7 °F 28.8 °F 84% 30.27 in 10.0 mi ENE 5.8 mph - N/A   Overcast
11:55 PM 32.9 °F 27.5 °F 28.2 °F 83% 30.27 in 10.0 mi NE 5.8 mph - N/A   Overcast